Wind_Speed
15 14 14 13 12 12 11 10 11 10 11 11 13 14 17 18 18 18 18 17 15 14 13 12 10 9 7 7 7 8 7 6 6 5 4 3 2 2 3 3 3 3 3
13 12 12 12 12 11 10 10 9 8 9 11 13 14 18 18 18 18 17 16 15 15 14 13 12 10 8 8 8 8 8 7 7 6 5 4 4 3 3 3 3 3 3
13 12 11 12 12 11 10 10 9 8 8 10 13 16 18 18 18 17 16 15 15 16 15 13 12 11 10 8 8 9 8 8 8 7 6 5 4 4 3 3 3 3 3
11 11 11 11 11 10 10 9 9 8 8 9 11 14 16 18 19 18 17 16 15 16 16 15 13 12 11 9 9 9 9 9 9 8 7 6 5 5 4 4 3 3 3
9 10 10 10 10 10 10 9 8 8 8 10 11 13 17 18 19 19 18 16 16 16 16 16 15 14 12 11 10 10 11 10 10 9 8 7 7 6 5 5 4 4 4
8 9 10 10 9 10 10 9 8 7 6 8 11 13 16 18 19 19 17 16 16 16 16 15 16 16 14 13 12 12 12 12 11 10 9 9 8 7 6 6 6 6 5
8 9 10 10 9 9 9 8 7 6 7 9 11 13 15 17 19 19 18 17 17 17 17 16 16 16 15 14 14 14 13 12 12 11 11 10 10 9 9 8 8 8 8
7 8 9 9 10 9 9 8 7 5 5 8 11 13 15 17 20 20 19 18 18 18 18 18 17 17 16 16 15 15 14 13 13 13 12 12 11 12 12 11 11 11 11
8 8 8 9 10 10 9 8 6 5 6 8 9 12 15 18 20 20 20 19 19 19 19 19 19 18 17 16 16 16 16 16 15 15 14 14 13 13 14 14 13 13 13
8 9 9 9 9 9 8 7 6 6 6 8 9 11 14 18 20 21 21 20 19 19 19 19 19 19 18 17 16 17 17 17 17 17 17 16 16 16 16 16 16 16 16
10 10 10 10 9 9 8 7 6 6 6 7 9 10 12 15 17 19 20 20 20 19 19 19 19 19 19 18 18 18 18 18 18 18 18 18 18 18 18 18 18 18 18
12 13 12 11 10 9 7 7 6 6 6 7 8 8 10 13 16 17 19 20 20 20 20 19 19 19 19 19 20 20 20 20 20 19 19 20 20 21 21 21 21 21 21
14 13 12 11 10 9 8 6 7 6 6 6 7 8 9 11 14 16 17 18 19 19 20 20 20 20 19 19 20 21 21 21 21 21 21 22 22 23 23 24 24 24 24
15 14 12 12 11 9 9 8 7 6 6 5 7 9 10 11 13 14 16 17 19 19 19 20 21 21 21 21 21 22 22 23 23 23 23 23 24 24 25 25 26 26 27
16 14 15 14 12 11 10 9 9 8 8 7 8 9 11 12 13 14 15 17 18 19 19 20 20 21 22 22 23 22 23 24 24 24 24 25 25 25 26 26 27 28 29
19 17 16 16 13 12 12 11 10 11 10 10 10 11 11 12 13 14 16 16 16 17 19 20 21 21 21 22 23 24 25 25 25 25 25 25 26 27 28 28 29 30 31
21 20 19 16 15 14 13 13 13 12 13 13 13 13 13 13 13 15 16 18 17 17 18 19 20 21 22 23 24 25 25 25 25 26 26 26 27 29 30 31 32 33 33
23 21 19 18 17 16 15 14 14 14 14 14 14 14 14 14 15 16 16 18 19 19 20 21 22 23 23 24 24 24 24 25 26 27 28 29 30 31 32 33 34 35 36
25 23 21 20 18 17 16 16 16 16 16 15 14 14 14 14 15 16 18 19 19 20 21 22 22 23 24 23 23 24 25 26 28 28 29 30 31 33 34 35 35 37 38
27 25 23 21 20 19 18 17 17 17 17 17 16 15 15 15 16 17 18 19 19 20 21 21 23 23 24 24 24 25 26 27 29 30 31 32 33 35 36 37 38 39 40
27 26 24 22 21 20 19 19 19 18 18 18 17 17 17 17 18 18 19 19 20 20 20 21 22 23 23 24 25 26 27 29 31 32 33 35 36 37 38 39 40 41 42
27 26 24 23 22 22 21 21 20 20 19 19 19 19 19 19 19 20 20 21 21 22 22 22 23 23 24 26 27 28 30 32 34 35 36 37 38 39 40 41 42 43 44
25 26 24 23 22 22 22 22 21 21 21 21 21 20 21 21 21 21 21 22 22 23 24 24 26 28 29 30 31 32 33 34 35 36 37 39 40 42 43 44 45 46 47
24 25 24 23 23 23 23 22 22 22 22 22 22 22 22 22 22 23 23 24 24 25 26 27 28 30 31 32 32 34 35 36 38 39 40 41 42 43 44 46 47 48 49
23 23 23 23 23 23 23 23 23 23 23 22 22 22 22 23 24 24 24 24 25 25 26 27 28 29 31 32 34 35 37 38 40 41 42 43 45 46 47 48 49 50 50
22 23 23 23 23 23 23 23 22 22 22 22 22 22 22 23 23 24 24 25 26 26 27 28 29 31 32 34 37 38 39 40 41 41 43 45 46 47 48 49 50 51 52
Wind_Direction
330 330 325 322 317 316 308 296 286 273 258 244 234 227 214 212 211 208 207 209 212 215 218 219 220 222 222 217 211 206 206 204 202 200 196 192 189 173 163 150 137 132 125
326 330 330 328 320 319 318 312 300 274 250 237 231 220 210 211 210 205 203 206 211 214 215 216 219 220 218 213 211 207 207 206 202 197 191 187 182 166 158 150 145 141 137
324 325 328 327 324 322 320 312 304 280 258 240 225 214 206 209 209 203 201 205 212 212 212 213 216 217 218 214 210 208 208 204 199 196 194 192 185 177 176 169 166 166 162
322 322 324 325 325 322 321 313 302 290 262 240 221 210 207 205 204 203 204 208 211 210 212 213 214 214 215 214 211 206 206 204 201 198 197 199 197 191 193 197 198 198 195
321 326 328 328 324 321 321 314 302 286 266 235 215 209 205 203 201 203 204 209 209 210 212 214 213 212 214 212 209 207 206 206 205 203 205 207 207 206 209 217 223 222 225
324 333 334 333 327 324 324 317 307 293 271 230 214 207 205 204 202 202 206 208 208 208 209 212 211 212 214 212 210 210 210 213 213 213 215 218 218 217 221 227 234 238 243
325 334 335 335 330 327 325 318 312 292 258 231 220 215 208 206 204 202 204 206 207 209 211 212 211 213 217 217 217 215 216 220 222 222 225 229 231 231 235 239 245 249 253
321 329 326 333 333 329 325 321 307 288 259 234 226 219 210 204 204 203 204 206 209 211 214 216 216 217 220 222 220 220 224 227 230 232 234 237 241 242 244 248 252 255 258
309 324 323 323 324 327 327 321 303 285 261 240 230 221 212 207 206 206 207 210 213 215 218 219 218 219 222 224 224 228 232 235 237 239 242 245 247 249 250 253 256 258 261
305 316 318 316 317 318 321 319 298 286 271 246 231 219 212 209 210 211 211 214 216 218 221 222 221 221 223 226 229 234 238 241 242 244 246 250 252 254 256 258 260 261 263
300 312 314 311 312 312 313 311 304 284 273 245 233 222 213 212 211 212 213 215 217 221 222 223 224 225 228 231 235 238 241 244 246 247 250 254 258 259 260 262 264 265 266
300 305 308 309 308 309 308 302 297 287 266 244 232 222 212 212 212 213 215 218 221 222 224 225 226 229 232 235 238 242 243 246 247 249 253 257 260 262 264 265 266 267 267
294 301 303 305 304 306 302 291 286 281 267 248 236 229 224 219 218 218 219 221 223 226 227 227 229 231 234 237 241 245 245 247 249 252 255 259 262 265 267 267 268 269 269
294 296 300 301 298 299 291 280 276 270 274 264 247 241 233 229 224 220 221 224 226 228 231 231 233 236 239 243 245 246 248 251 254 257 260 261 264 266 268 270 271 271 271
294 296 297 296 294 295 288 279 276 267 264 260 253 246 237 234 230 227 225 226 228 232 234 236 238 240 244 248 248 248 253 256 258 261 263 265 265 266 269 270 272 273 273
290 289 291 290 288 290 283 279 274 267 262 260 256 246 241 239 236 235 233 232 234 239 238 239 241 244 248 251 252 254 258 259 261 262 263 266 267 269 271 273 274 274 274
284 285 288 285 283 285 277 276 272 265 261 259 256 252 248 243 240 239 236 235 238 243 242 244 245 248 254 257 257 258 259 260 262 263 264 266 269 271 272 273 273 274 275
276 277 276 275 279 277 275 274 269 262 260 259 259 254 250 246 244 243 241 242 244 247 249 249 251 254 257 260 260 260 259 260 262 263 266 268 271 273 274 275 275 275 275
274 274 272 271 273 271 269 267 265 265 263 260 260 260 256 252 252 250 249 250 253 256 257 257 258 260 263 264 263 264 265 266 267 268 271 273 274 275 276 276 277 277 278
273 272 271 269 267 268 267 266 265 265 264 261 259 261 258 258 258 260 259 258 260 260 261 262 261 262 263 264 266 270 270 271 271 271 273 275 277 278 278 279 279 279 279
268 268 267 265 265 265 264 264 264 264 262 262 259 262 263 261 262 263 263 261 260 262 262 264 265 266 267 269 271 274 274 274 275 275 276 278 279 279 280 280 280 280 280
264 265 263 262 262 262 262 262 262 264 262 259 259 260 262 263 264 264 265 265 264 267 268 269 269 269 270 272 274 277 276 276 276 277 278 279 280 280 280 281 281 281 282
262 261 260 260 259 259 259 260 260 260 261 261 260 261 262 264 266 267 269 269 267 270 271 270 271 272 273 274 276 278 279 279 280 281 282 281 281 281 282 282 283 283 283
258 255 256 257 257 257 257 257 259 261 261 262 262 264 267 268 269 272 273 274 273 274 274 274 275 276 276 277 280 281 281 281 281 282 282 282 282 283 283 283 284 284 284
255 253 255 257 258 258 256 257 257 260 262 263 263 264 267 267 269 273 275 275 276 276 277 279 280 280 281 281 282 282 282 282 282 283 283 283 284 285 285 285 285 285 285
254 253 255 256 257 257 258 259 260 260 261 263 264 264 268 271 273 275 276 277 279 278 279 280 280 281 283 285 286 285 284 285 285 285 285 286 286 286 286 287 287 287 287
Height
5862 5860 5858 5855 5854 5852 5851 5850 5850 5850 5851 5851 5853 5856 5859 5862 5864 5867 5870 5872 5875 5877 5879 5881 5882 5883 5884 5885 5885 5886 5887 5888 5888 5888 5888 5888 5888 5888 5888 5887 5887 5887 5886
5861 5859 5857 5855 5852 5851 5849 5848 5847 5847 5847 5848 5850 5853 5856 5859 5861 5864 5867 5869 5872 5874 5877 5878 5880 5881 5882 5883 5884 5885 5886 5887 5887 5888 5888 5888 5889 5888 5888 5888 5888 5887 5887
5859 5858 5855 5853 5851 5849 5847 5846 5845 5844 5844 5845 5847 5849 5852 5856 5859 5862 5864 5867 5869 5872 5874 5876 5878 5879 5880 5881 5883 5884 5885 5886 5887 5887 5888 5888 5888 5888 5889 5888 5888 5887 5887
5858 5856 5854 5851 5849 5848 5846 5845 5844 5842 5842 5843 5844 5847 5850 5853 5856 5859 5862 5864 5867 5869 5871 5873 5875 5877 5879 5880 5881 5882 5883 5885 5885 5886 5887 5888 5888 5888 5888 5888 5888 5887 5887
5856 5854 5851 5849 5848 5846 5845 5843 5842 5841 5840 5840 5842 5844 5848 5851 5853 5856 5859 5862 5864 5867 5869 5871 5873 5875 5876 5878 5879 5880 5882 5883 5884 5885 5886 5886 5887 5887 5887 5887 5887 5887 5887
5853 5851 5849 5847 5846 5844 5843 5841 5839 5838 5837 5838 5840 5842 5845 5848 5851 5854 5857 5859 5862 5864 5866 5869 5871 5872 5874 5875 5877 5878 5880 5881 5882 5883 5884 5885 5885 5886 5886 5886 5886 5886 5886
5850 5849 5847 5846 5844 5842 5841 5839 5838 5837 5837 5838 5838 5841 5843 5846 5849 5852 5854 5857 5860 5862 5864 5866 5868 5870 5871 5873 5875 5876 5878 5879 5880 5881 5882 5883 5883 5884 5884 5884 5884 5884 5884
5848 5847 5846 5844 5843 5841 5839 5838 5836 5835 5835 5836 5837 5839 5841 5843 5846 5849 5852 5854 5857 5859 5861 5863 5865 5867 5869 5870 5872 5874 5875 5876 5877 5878 5879 5880 5880 5881 5881 5882 5882 5881 5881
5846 5845 5844 5843 5841 5840 5838 5836 5835 5834 5834 5834 5835 5836 5838 5841 5843 5846 5849 5851 5854 5856 5858 5860 5862 5864 5866 5867 5869 5871 5872 5873 5874 5875 5876 5876 5877 5877 5878 5878 5878 5879 5878
5844 5842 5842 5841 5839 5838 5836 5835 5834 5833 5832 5832 5833 5834 5836 5838 5840 5843 5845 5848 5850 5853 5855 5857 5859 5861 5862 5864 5866 5867 5868 5869 5870 5871 5872 5872 5873 5873 5873 5874 5874 5874 5874
5842 5840 5839 5838 5837 5836 5834 5833 5832 5831 5830 5830 5831 5832 5833 5835 5837 5840 5842 5845 5847 5849 5851 5853 5855 5857 5859 5861 5862 5863 5864 5865 5866 5866 5867 5868 5868 5868 5868 5869 5869 5869 5869
5838 5838 5837 5836 5835 5833 5832 5832 5831 5830 5829 5828 5829 5830 5831 5833 5835 5837 5839 5841 5843 5845 5848 5850 5852 5854 5855 5857 5858 5859 5860 5861 5861 5862 5862 5862 5862 5863 5863 5863 5863 5863 5863
5835 5835 5834 5834 5832 5831 5830 5830 5829 5829 5828 5827 5828 5829 5829 5831 5832 5834 5836 5838 5840 5842 5845 5846 5848 5850 5851 5852 5853 5854 5855 5856 5856 5856 5857 5857 5857 5857 5857 5857 5857 5856 5856
5831 5832 5831 5831 5829 5828 5828 5828 5827 5827 5827 5827 5827 5828 5828 5829 5830 5832 5833 5835 5836 5839 5841 5842 5844 5845 5846 5847 5848 5849 5850 5851 5851 5851 5851 5851 5851 5851 5851 5850 5850 5849 5849
5828 5828 5828 5828 5826 5826 5825 5826 5826 5826 5826 5826 5826 5826 5827 5827 5828 5829 5830 5831 5833 5835 5836 5837 5839 5840 5841 5842 5843 5843 5844 5845 5845 5845 5845 5845 5844 5844 5844 5843 5843 5842 5841
5825 5825 5825 5824 5823 5823 5824 5823 5823 5823 5823 5823 5823 5823 5824 5825 5826 5826 5827 5828 5830 5831 5831 5833 5834 5835 5836 5837 5837 5838 5839 5839 5839 5839 5839 5838 5838 5837 5837 5836 5835 5834 5833
5821 5821 5821 5821 5821 5820 5820 5820 5820 5820 5820 5820 5820 5820 5821 5822 5823 5823 5824 5825 5826 5827 5827 5828 5829 5830 5831 5831 5832 5832 5832 5832 5832 5832 5831 5831 5830 5829 5829 5828 5827 5825 5824
5815 5816 5816 5816 5816 5816 5816 5816 5816 5816 5817 5817 5817 5817 5817 5818 5819 5819 5820 5821 5822 5823 5823 5823 5824 5825 5825 5826 5825 5825 5825 5825 5825 5824 5824 5823 5822 5822 5820 5819 5818 5816 5814
5808 5809 5809 5810 5811 5812 5812 5812 5812 5812 5813 5813 5813 5813 5814 5814 5815 5816 5817 5817 5818 5818 5818 5819 5819 5819 5819 5819 5819 5819 5818 5818 5817 5816 5816 5815 5814 5812 5811 5810 5808 5806 5803
5801 5802 5803 5804 5805 5806 5807 5807 5807 5808 5808 5809 5809 5810 5810 5811 5811 5812 5812 5812 5812 5812 5812 5812 5813 5813 5813 5813 5813 5812 5811 5810 5809 5808 5807 5806 5804 5803 5801 5799 5797 5795 5793
5794 5795 5796 5797 5798 5799 5801 5802 5803 5803 5804 5804 5805 5805 5806 5806 5807 5807 5807 5807 5807 5807 5807 5807 5807 5806 5806 5805 5805 5804 5803 5802 5801 5799 5798 5796 5794 5792 5790 5788 5786 5783 5781
5787 5788 5789 5790 5792 5794 5795 5796 5797 5798 5798 5799 5799 5800 5801 5801 5801 5801 5801 5801 5801 5801 5801 5800 5800 5799 5799 5798 5797 5796 5794 5793 5792 5790 5788 5786 5784 5781 5779 5776 5773 5770 5768
5779 5780 5782 5783 5785 5787 5788 5790 5791 5792 5792 5793 5793 5794 5795 5795 5795 5795 5795 5794 5794 5794 5793 5793 5792 5791 5790 5789 5788 5787 5785 5783 5782 5780 5777 5775 5772 5769 5766 5763 5760 5757 5753
5772 5773 5775 5776 5778 5780 5781 5783 5785 5785 5786 5787 5787 5788 5788 5788 5789 5788 5788 5788 5787 5786 5785 5784 5784 5782 5781 5780 5778 5776 5774 5773 5771 5768 5765 5763 5759 5756 5753 5749 5746 5742 5738
5766 5767 5768 5770 5771 5773 5774 5776 5777 5779 5780 5780 5781 5781 5782 5782 5782 5781 5781 5780 5779 5778 5777 5776 5775 5773 5772 5770 5768 5766 5763 5761 5759 5756 5753 5750 5746 5742 5738 5734 5730 5726 5722
5759 5761 5762 5764 5765 5767 5768 5769 5771 5772 5772 5773 5774 5774 5774 5774 5774 5774 5773 5773 5772 5770 5769 5768 5766 5764 5762 5760 5758 5755 5752 5749 5747 5743 5739 5736 5732 5728 5723 5719 5715 5710 5706